Погода в Новоситовке

Россия / Тамбовская область     52°39′38″N   40°02′19″E
темп.,
°C
ветер,
м/с
пор.,
м/с
влажн.,
%
обл.,
%
осадки,
мм/ч
давл.,
гПа
погр.,
м
22 апреля, чт
чт2200:00+5ююз379386 0.1 1016138
03:00+4юз399556 0.2 1017235
06:00+4юз36945 0.0 1018160
09:00+8юз46745 0.0 1019606
12:00+13юз565578 0.1 10201689
15:00+13ююз4652100 0.1 10191768
18:00+12ю366962 0.1 1019164
21:00+9ю487678 0.1 1020137
23 апреля, пт
пт2300:00+8ю487581 0.0 1020128
03:00+8ю348096 0.0 102047
06:00+9ююв378171 0.0 1020139
09:00+13ю586289 0.1 1019516
12:00+16ю5746100 0.0 10182155
15:00+16ю5647100 0.1 10171835
18:00+13ююв486434 0.3 1015244
21:00+11юв512795 0.3 1014285
24 апреля, сб
сб2400:00+9юв6138884 0.1 1012318
03:00+8ю61387100 0.1 1010420
06:00+6зсз5992100 0.8 1010429
09:00+6зсз5774100 0.9 10111021
12:00+9з676365 0.3 10111472
15:00+10зюз6750100 0.6 10101785
18:00+8з5857100 1.4 1010690
21:00+5зюз71276100 1.9 1011380
25 апреля, вс
вс2500:00+4з6986100 0.1 1011706
03:00+3з6108165 0.6 1012797
06:00+2з612835 0.0 1014539
09:00+6з710655 0.0 10161194
12:00+8з7945100 0.3 10162383
15:00+9зюз81140100 0.3 10162593
18:00+8з6106047 0.3 10161465
21:00+6юз397399 0.4 1017355
26 апреля, пн
пн2600:00+4зюз389291 0.4 1017447
03:00+4ююз248695 0.5 1017149
06:00+4юз1491100 0.3 1016425
09:00+3сз1297100 2.1 1016439
12:00+4всв1297100 0.2 1015341
15:00+6зюз3576100 0.3 1013836
18:00+5юз3585100 1.0 1012619
21:00+4ююз358898 1.1 1012140